カタログに戻る

STARLINK-31589

運用中通信VLEO
NORAD 59654·PAYLOAD·🇺🇸 United States

打ち上げ May 6, 2024 から Cape Canaveral Space Force Station

Loading…

次のパス (今後24時間)

TLE

最新Source: CelesTrak SupGP

元期: Sep 15, 2026, 03:12 UTC

1 59654C 24084A   26258.13381944 -.00025362  00000+0 -91835-3 0  2589
2 59654  43.0026  51.7495 0001699 269.0190 252.0816 15.27600601    12

AllMySatでSTARLINK-31589をリアルタイム追跡

Download on the App Store